Location: Newark
(35.8833°N, 14.5000°E)
Time: 07:48:27
(UTC+00:00)

Altair - Pass Details

Date: 27 November 2019
Orbit: 1502 x 1682 km, 47.2° (Epoch: 05 December)

Event Time Altitude Azimuth Distance (km) Brightness Sun altitude
Rises 00:39:04 0° 255° (WSW) 4,683 - -61.8°
Reaches altitude 10° 00:42:13 10° 259° (W) 3,683 - -61.3°
Maximum altitude 00:51:16 57° 337° (NNW) 1,735 - -59.6°
Exits shadow 00:58:48 16° 52° (NE) 3,212 9.4 -58.1°
Drops below altitude 10° 01:00:16 10° 55° (NE) 3,658 9.8 -57.8°
Sets 01:03:24 0° 60° (ENE) 4,648 10.5 -57.2°
